Location: Ar Ranvel
(48.3000°N, 4.8833°W)
Time: 13:37:46
(UTC+00:00)

Cosmos 405 - Pass Details

Date: 16 June 2021
Orbit: 446 x 459 km, 81.3° (Epoch: 30 July)

Event Time Altitude Azimuth Distance (km) Brightness Sun altitude
Rises 22:27:43 0° 347° (NNW) 2,466 8.3 -14.0°
Reaches altitude 10° 22:29:48 10° 346° (NNW) 1,587 7.0 -14.2°
Maximum altitude 22:33:15 77° 261° (W) 466 2.9 -14.4°
Enters shadow 22:34:58 27° 178° (S) 888 3.9 -14.5°
